Location: Puketoi
(40.5833°S, 176.0167°E)
Time: 14:12:16
(UTC+00:00)

Meteor 2-19 Rocket - Pass Details

Date: 08 February 2023
Orbit: 935 x 959 km, 82.5° (Epoch: 30 March)

Event Time Altitude Azimuth Distance (km) Brightness Sun altitude
Rises 13:50:07 0° 187° (S) 3,631 8.3 -31.4°
Reaches altitude 10° 13:52:38 10° 185° (S) 2,681 7.5 -31.2°
Enters shadow 13:58:34 76° 122° (ESE) 978 4.4 -30.8°
